EHI
0 0 0 0 0 0 0 0 0 0 0 0 0 0 0 0 0 0 0 0 0 0 0 0 0 0 0 0 0 0 0 0 0 0 0 0 0 0
0 0 0 0 0 0 0 0 0 0 0 0 0 0 0 0 0 0 0 0 0 0 0 0 0 0 0 0 0 0 0 0 0 0 0 0 0 0
0 0 0 0 0 0 0 0 0 0 0 0 0 0 0 0 0 0 0 0 0 0 0 0 0 0 0 0 0 0 0 0 0 0 0 0 0 0
0 0 0 0 0 0 0 0 0 0 0 0 0 0 0 0 0 0 0 0 0 0 0 0 0 0 0 0 0 0 0 0 0 0 0 0 0 0
0 0 0 0 0 0 0 0 0 0 0 0 0 0 0 0 0 0 0 0 0 0 0 0 0 0 0 0 0 0 0 0 0 0 0 0 0 0
0 0 0 0 0 0 0 0 0 0 0 0 0 0 0 0 0 0 0 0 0 0 0 0 0 0 0 0 0 0 0 0 0 0 0 0 0 0
0 0 0 0 0 0 0 0 0 0 0 0 0 0 0 0 0 0 0 0 0 0 0 0 0 0 0 0 0 0 0 0 0 0 0 0 0 0
0 0 0 0 0 0 0 0 0 0 0 0 0 0 0 0 0 0 0 0 0 0 0 0 0 0 0 0 0 0 0 0 0 0 0 0 0 0
0 0 0 0 0 0 0 0 0 0 0 0 0 0 0 0 0 0 0 0 0 0 0 0 0 0 0 0 0 0 0 0 0 0 0 0 0 0
0 0 0 0 0 0 0 0 0 0 0 0 0 0 0 0 0 0 0 0 0 0 0 0 0 0 0 0 0 0 0 0 0 0 0 0 0 0
0 0 0 0 0 0 0 0 0 0 0 0 0 0 0 0 0 0 0 0 0 0 0 0 0 0 0 0 0 0 0 0 0 0 0 0 0 0
0 0 0 0 0 0 0 0 0 0 0 0 0 0 0 0 0 0 0 0 0 0 0 0 0 0 0 0 0 0 0 0 0 0 0 0 0 0
0 0 0 0 0 0 0 0 0 0 0 0 0 0 0 0 0 0 0 0 0 0 0 0 0 0 0 0 0 0 0 0 0 0 0 0 0 0
0 0 0 0 0 0 0 0 0 0 0 0 0 0 0 0 0 0 0 0 0 0 0 0 0 0 0 0 0 0 0 0 0 0 0 0 0 0
0 0 0 0 0 0 0 0 0 0 0 0 0 0 0 0 0 0 0 0 0 0 0 0 0 0 0 0 0 0 0 0 0 0 0 0 0 0
0 0 0 0 0 0 0 0 0 0 0 0 0 0 0 0 0 0 0 0 0 0 0 0 0 0 0 0 0 0 0 0 0 0 0 0 0 0
0 0 0 0 0 0 0 0 0 0 0 0 0 0 0 0 0 0 0 0 0 0 0 0 0 0 0 0 0 0 0 0 0 0 0 0 0 0
0 0 0 0 0 0 0 0 0 0 0 0 0 0 0 0 0 0 0 0 0 0 0 0 0 0 0 0 0 0 0 0 0 0 0 0 0 0
0 0 0 0 0 0 0 0 0 0 0 0 0 0 0 0 0 0 0 0 0 0 0 0 0 0 0 0 0 0 0 0 0 0 0 0 0 0
0 0 0 0 0 0 0 0 0 0 0 0 0 0 0 0 0 0 0 0 0 0 0 0 0 0 0 0 0 0 0 0 0 0 0 0 0 0
0 0 0 0 0 0 0 0 0 0 0 0 0 0 0 0 0 0 0 0 0 0 0 0 0 0 0 0 0 0 0 0 0 0 0 0 0 0
0 0 0 0 0 0 0 0 0 0 0 0 0 0 0 0 0 0 0 0 0 0 0 0 0 0 0 0 0 0 0 0 0 0 0 0 0 0
0 0 0 0 0 0 0 0 0 0 0 0 0 0 0 0 0 0 0 0 0 0 0 0 0 0 0 0 0 0 0 0 0 0 0 0 0 0
Wind_Speed
2 1 1 0 0 0 0 1 1 1 3 2 2 3 3 3 6 4 5 10 12 12 11 11 11 10 9 8 8 9 9 9 10 10 10 10 10 11
1 2 1 0 0 0 0 0 0 1 2 2 2 3 4 4 7 4 5 11 11 12 11 11 11 11 10 8 8 9 10 10 10 10 10 10 11 11
1 2 1 1 0 0 0 0 0 1 2 4 2 3 3 4 5 4 4 4 5 11 11 11 11 12 11 9 9 10 10 10 10 10 11 11 11 12
2 2 1 1 0 0 0 1 1 1 2 4 4 3 4 4 4 4 5 5 4 9 11 11 11 12 12 11 10 10 10 10 10 10 11 11 12 12
3 3 2 2 1 1 1 1 1 1 2 3 4 3 3 3 3 4 4 4 5 7 9 10 11 12 12 11 11 10 10 11 11 11 11 12 12 13
2 2 2 3 3 3 2 2 2 2 2 2 3 3 3 3 3 3 4 4 5 5 7 8 10 11 12 12 11 11 11 11 11 12 11 12 12 13
2 2 2 3 4 3 2 2 2 2 2 2 3 3 3 3 3 3 4 5 5 4 4 4 5 4 6 8 10 11 11 11 11 12 12 12 12 13
2 2 2 3 3 5 5 4 4 3 3 3 3 4 5 4 3 4 4 4 5 2 3 5 4 4 4 4 9 12 12 12 11 11 12 13 13 14
3 2 2 2 3 2 4 5 5 6 6 4 4 5 4 4 4 5 4 5 6 5 3 5 3 4 4 6 12 12 11 12 12 12 12 13 14 14
3 3 3 3 3 3 3 2 3 4 5 4 4 5 4 4 4 4 5 5 5 4 2 4 4 4 5 5 10 11 12 13 13 13 14 14 14 15
3 3 3 3 5 5 2 3 3 4 5 6 6 6 8 8 5 2 3 4 4 4 2 2 3 4 5 4 6 10 12 13 14 14 14 14 14 14
2 2 4 4 6 5 2 2 3 4 3 4 4 6 5 5 7 3 3 4 4 3 2 2 2 3 5 3 3 4 6 10 14 14 14 14 14 8
2 2 3 5 6 5 3 3 5 4 2 2 3 3 3 3 3 3 2 3 4 4 3 2 3 3 4 5 4 4 4 5 6 8 11 14 14 11
3 2 3 6 6 6 4 4 6 4 1 2 2 3 3 3 3 3 4 4 5 6 5 4 3 4 5 6 6 4 4 4 5 6 5 10 11 13
2 4 4 5 4 4 5 5 4 2 2 2 3 3 3 3 3 3 4 4 5 5 5 5 5 5 5 6 6 5 6 5 5 5 5 6 6 6
2 3 4 4 3 3 3 3 2 2 2 3 3 3 3 3 3 3 4 4 4 4 4 5 5 6 6 6 6 7 6 5 4 5 6 6 6 6
1 0 1 1 1 1 2 2 2 2 2 2 3 3 3 3 4 3 3 3 4 5 5 4 4 5 6 6 6 7 6 6 6 6 6 7 7 6
1 1 1 1 2 2 2 2 2 2 3 3 3 3 4 4 4 4 3 4 5 5 5 4 4 4 4 5 8 7 6 6 5 5 5 7 8 6
1 1 1 2 2 2 2 3 3 3 3 3 4 4 4 4 4 4 4 4 5 5 5 4 3 3 5 6 5 5 5 5 5 5 5 6 8 8
1 2 2 2 2 2 2 3 3 3 3 3 3 4 4 4 5 5 5 5 5 5 5 4 3 4 5 6 6 6 8 6 5 6 6 6 7 11
2 2 3 3 3 3 3 3 3 4 4 3 4 4 4 4 5 5 5 8 7 5 6 6 6 8 5 3 5 6 5 8 9 7 6 7 8 7
2 3 3 3 3 3 3 3 3 4 4 4 4 4 4 4 5 6 6 6 5 6 6 6 5 4 3 5 7 8 8 7 9 12 12 10 6 6
3 3 3 3 3 3 3 4 5 4 4 4 4 4 4 5 5 5 6 6 6 6 6 5 4 4 5 5 7 7 9 8 6 6 7 11 14 17
Wind_Direction
129 120 111 96 82 40 135 172 176 268 292 301 327 329 326 320 327 333 330 332 336 338 339 340 339 336 329 331 329 326 323 320 318 313 307 305 302 300
129 120 118 120 77 52 85 2 203 210 267 288 292 308 312 322 324 329 318 329 332 333 335 336 336 336 328 327 327 326 321 318 317 314 313 310 307 305
133 135 156 136 111 67 74 89 257 204 254 285 288 299 301 301 309 312 310 313 317 327 330 331 333 331 329 324 325 323 320 313 310 310 310 309 308 305
169 160 182 157 146 231 175 220 237 228 232 274 290 293 291 292 296 305 317 320 312 320 325 326 327 327 327 326 322 318 316 313 309 308 308 308 307 306
183 184 193 176 211 229 221 231 245 259 240 254 279 287 290 298 303 304 306 303 310 316 321 321 319 320 322 323 319 315 312 312 309 306 306 306 307 307
190 197 203 203 213 222 229 230 236 249 248 255 272 287 286 294 292 300 309 309 307 312 314 313 314 316 316 317 316 313 310 309 308 307 306 306 305 306
194 211 220 229 231 232 234 228 227 238 246 254 269 284 285 301 299 294 300 306 295 288 301 300 301 297 302 306 311 309 306 305 304 305 305 306 305 304
206 232 243 250 255 261 266 261 249 244 249 253 261 268 277 280 286 290 298 307 299 289 297 294 289 288 289 283 299 306 305 302 303 306 308 307 306 304
211 227 248 253 264 265 272 277 275 275 267 253 253 259 268 270 279 283 280 280 279 286 290 283 279 281 284 290 299 302 307 312 311 309 308 308 309 310
215 218 232 247 258 252 247 264 269 273 271 259 245 252 260 263 257 266 274 282 285 277 264 271 278 279 288 280 289 297 306 310 310 309 309 309 308 307
231 227 229 235 258 262 247 255 277 287 291 287 280 283 290 294 294 297 295 294 290 287 258 252 278 296 288 273 279 290 299 305 307 306 306 306 307 308
241 245 245 247 259 267 234 230 261 276 285 299 302 303 301 298 298 280 266 280 285 283 263 258 274 312 304 283 283 294 294 299 306 305 303 304 306 306
239 251 254 262 268 272 265 236 260 276 278 283 284 291 296 293 292 283 264 261 264 263 275 279 278 280 270 291 296 287 285 293 303 302 304 306 306 304
228 243 252 269 279 283 282 281 288 295 278 279 283 286 290 291 290 286 277 268 258 260 268 263 264 270 277 282 286 290 292 288 288 289 293 304 305 305
239 254 263 276 283 287 290 293 295 280 266 269 274 277 278 280 287 291 289 283 275 269 266 255 255 261 260 266 278 285 297 292 282 285 292 296 293 295
261 270 281 292 300 296 290 297 294 275 266 261 271 275 282 284 282 283 289 296 288 284 269 258 257 256 259 260 265 276 278 280 293 293 292 289 285 284
199 206 256 287 288 288 295 289 279 285 286 274 271 280 284 286 284 282 274 279 275 285 295 287 269 263 254 255 261 264 272 277 278 286 292 291 285 280
185 201 245 253 262 275 284 286 283 280 275 274 272 271 278 281 284 283 275 272 276 279 283 290 300 305 299 273 240 254 262 271 279 280 279 284 288 287
202 227 252 259 262 267 271 273 276 279 278 271 270 270 272 275 278 280 280 278 276 277 277 277 275 280 291 292 282 248 258 279 285 283 276 272 279 287
243 246 254 255 258 264 268 274 281 285 279 278 275 271 267 268 272 274 274 272 277 280 282 275 259 253 258 271 278 280 274 273 275 279 283 281 277 285
260 254 253 253 258 262 266 269 272 275 274 271 272 272 272 268 268 269 270 278 279 274 275 274 268 279 277 276 278 278 274 272 273 273 280 288 293 295
270 265 263 258 257 259 263 265 270 272 275 272 270 270 270 267 268 269 269 272 271 270 271 276 279 279 258 258 271 281 286 289 287 286 279 272 274 280
274 270 266 264 261 260 260 263 266 268 266 266 269 269 269 270 269 270 271 269 270 273 276 281 283 272 264 262 269 277 283 290 292 294 287 286 284 282